This is the latest recevied weather packets stored in our database for station/object SR9WXJ. If no packets are shown the sender has not sent any weather packets the latest 10 day(s).
| Time | Temp. | Humidity | Pressure | Rain* | Wind** | Luminosity | Snow |
|---|---|---|---|---|---|---|---|
| 1777636787 | 13.89° C | 100% | 808.2 hPa | - | - | - | - |
| 1777636476 | 13.89° C | 100% | 808.2 hPa | - | - | - | - |
| 1777636165 | 15° C | 100% | 808.4 hPa | - | - | - | - |
| 1777635865 | 13.89° C | 100% | 808.4 hPa | - | - | - | - |
| 1777635554 | 13.33° C | 100% | 808.4 hPa | - | - | - | - |
| 1777635243 | 13.33° C | 100% | 808.5 hPa | - | - | - | - |
| 1777634932 | 13.89° C | 100% | 808.5 hPa | - | - | - | - |
| 1777634621 | 13.89° C | 100% | 808.5 hPa | - | - | - | - |
| 1777634310 | 13.33° C | 100% | 809.1 hPa | - | - | - | - |
| 1777633696 | 13.89° C | 100% | 809.1 hPa | - | - | - | - |
| 1777633386 | 13.33° C | 100% | 809.8 hPa | - | - | - | - |
| 1777633075 | 13.33° C | 100% | 809.8 hPa | - | - | - | - |
| 1777632464 | 13.89° C | 100% | 810.1 hPa | - | - | - | - |
| 1777632153 | 12.78° C | 100% | 810.1 hPa | - | - | - | - |
| 1777631842 | 13.33° C | 100% | 810.1 hPa | - | - | - | - |
| 1777631531 | 13.33° C | 100% | 810.8 hPa | - | - | - | - |
| 1777631231 | 13.33° C | 100% | 810.8 hPa | - | - | - | - |
| 1777630920 | 13.89° C | 100% | 810.8 hPa | - | - | - | - |
| 1777630610 | 13.33° C | 100% | 810.8 hPa | - | - | - | - |
| 1777629987 | 12.78° C | 100% | 810.8 hPa | - | - | - | - |
| 1777629687 | 12.78° C | 100% | 810.8 hPa | - | - | - | - |
| 1777629376 | 13.33° C | 100% | 810.8 hPa | - | - | - | - |
| 1777629065 | 12.78° C | 100% | 810.8 hPa | - | - | - | - |
| 1777628754 | 12.78° C | 100% | 810.8 hPa | - | - | - | - |
| 1777628443 | 12.78° C | 100% | 810.8 hPa | - | - | - | - |
* Rain since midnight (hover to see other rain measurements)
** Current wind speed in m/s (hover to see current wind gust speed)